Time,TemperatureF,DewpointF,PressureIn,WindDirection,WindDirectionDegrees,WindSpeedMPH,WindSpeedGustMPH,Humidity,HourlyPrecipIn,Conditions,Clouds,dailyrainin,SoftwareType,DateUTC
2013-02-11 00:14:00,56.1,52.3,29.97,SSW,198,2.3,4.6,87,0.00,,,0.00,VWS V14.01,2013-02-11 06:14:00,
2013-02-11 00:29:00,55.9,51.5,29.98,SW,232,1.1,4.6,85,0.00,,,0.00,VWS V14.01,2013-02-11 06:29:00,
2013-02-11 00:44:00,55.5,50.8,29.99,South,188,1.1,4.6,84,0.00,,,0.00,VWS V14.01,2013-02-11 06:44:00,
2013-02-11 00:59:00,54.9,49.5,29.99,SSW,200,0.0,3.4,82,0.00,,,0.00,VWS V14.01,2013-02-11 06:59:00,
2013-02-11 01:14:00,54.1,48.4,30.00,SW,214,0.0,3.4,81,0.00,,,0.00,VWS V14.01,2013-02-11 07:14:00,
2013-02-11 01:29:00,53.4,46.0,30.00,WSW,238,0.0,3.4,76,0.00,,,0.00,VWS V14.01,2013-02-11 07:29:00,
2013-02-11 01:44:00,52.5,44.5,30.00,WSW,245,0.0,1.1,74,0.00,,,0.00,VWS V14.01,2013-02-11 07:44:00,
2013-02-11 01:59:00,50.6,44.0,30.00,WSW,245,0.0,0.0,78,0.00,,,0.00,VWS V14.01,2013-02-11 07:59:00,
2013-02-11 02:14:00,48.9,42.7,30.00,WSW,243,0.0,0.0,79,0.00,,,0.00,VWS V14.01,2013-02-11 08:14:00,
2013-02-11 02:29:00,46.9,42.0,30.01,WSW,243,0.0,0.0,83,0.00,,,0.00,VWS V14.01,2013-02-11 08:29:00,
2013-02-11 02:44:00,46.4,41.8,30.02,West,264,0.0,0.0,84,0.00,,,0.00,VWS V14.01,2013-02-11 08:44:00,
2013-02-11 02:59:00,48.3,40.8,30.02,WNW,288,1.1,3.4,75,0.00,,,0.00,VWS V14.01,2013-02-11 08:59:00,
2013-02-11 03:14:00,49.6,39.1,30.02,WSW,255,0.0,3.4,67,0.00,,,0.00,VWS V14.01,2013-02-11 09:14:00,
2013-02-11 03:29:00,50.2,38.9,30.03,WSW,240,0.0,2.3,65,0.00,,,0.00,VWS V14.01,2013-02-11 09:29:00,
2013-02-11 03:44:00,50.4,38.3,30.04,SW,231,0.0,4.6,63,0.00,,,0.00,VWS V14.01,2013-02-11 09:44:00,
2013-02-11 03:59:00,49.7,38.0,30.05,WNW,295,0.0,2.3,64,0.00,,,0.00,VWS V14.01,2013-02-11 09:59:00,
2013-02-11 04:14:00,49.6,37.5,30.05,NNW,345,0.0,4.6,63,0.00,,,0.00,VWS V14.01,2013-02-11 10:14:00,
2013-02-11 04:29:00,49.1,36.7,30.04,North,359,1.1,5.8,62,0.00,,,0.00,VWS V14.01,2013-02-11 10:29:00,
2013-02-11 04:44:00,48.8,36.0,30.05,NE,35,1.1,4.6,61,0.00,,,0.00,VWS V14.01,2013-02-11 10:44:00,
2013-02-11 04:59:00,48.6,34.9,30.06,WNW,283,0.0,5.8,59,0.00,,,0.00,VWS V14.01,2013-02-11 10:59:00,
2013-02-11 05:14:00,48.0,33.9,30.08,West,276,0.0,10.3,58,0.00,,,0.00,VWS V14.01,2013-02-11 11:14:00,
2013-02-11 05:29:00,47.4,33.4,30.09,NW,323,2.3,9.2,58,0.00,,,0.00,VWS V14.01,2013-02-11 11:29:00,
2013-02-11 05:44:00,46.8,34.1,30.09,WNW,285,0.0,8.1,61,0.00,,,0.00,VWS V14.01,2013-02-11 11:44:00,
2013-02-11 05:59:00,46.1,33.4,30.10,WNW,295,1.1,4.6,61,0.00,,,0.00,VWS V14.01,2013-02-11 11:59:00,
2013-02-11 06:14:00,45.6,32.9,30.10,SW,236,0.0,11.5,61,0.00,,,0.00,VWS V14.01,2013-02-11 12:14:00,
2013-02-11 06:29:00,45.2,32.6,30.11,North,5,0.0,8.1,61,0.00,,,0.00,VWS V14.01,2013-02-11 12:29:00,
2013-02-11 06:44:00,44.6,32.8,30.10,North,351,0.0,2.3,63,0.00,,,0.00,VWS V14.01,2013-02-11 12:44:00,
2013-02-11 06:59:00,44.3,32.5,30.11,North,8,0.0,3.4,63,0.00,,,0.00,VWS V14.01,2013-02-11 12:59:00,
2013-02-11 07:14:00,44.3,30.9,30.12,NNW,340,0.0,3.4,59,0.00,,,0.00,VWS V14.01,2013-02-11 13:14:00,
2013-02-11 07:29:00,44.4,31.0,30.14,NNW,328,0.0,4.6,59,0.00,,,0.00,VWS V14.01,2013-02-11 13:29:00,
2013-02-11 07:44:00,44.3,30.5,30.14,NNW,335,0.0,4.6,58,0.00,,,0.00,VWS V14.01,2013-02-11 13:44:00,
2013-02-11 07:59:00,44.5,30.7,30.15,North,350,1.1,3.4,58,0.00,,,0.00,VWS V14.01,2013-02-11 13:59:00,
2013-02-11 08:14:00,44.7,30.9,30.17,North,351,0.0,3.4,58,0.00,,,0.00,VWS V14.01,2013-02-11 14:14:00,
2013-02-11 08:29:00,44.7,30.4,30.16,North,1,1.1,4.6,57,0.00,,,0.00,VWS V14.01,2013-02-11 14:29:00,
2013-02-11 08:44:00,44.9,31.0,30.17,NNW,338,0.0,3.4,58,0.00,,,0.00,VWS V14.01,2013-02-11 14:44:00,
2013-02-11 08:59:00,45.2,30.9,30.16,NNW,342,2.3,3.4,57,0.00,,,0.00,VWS V14.01,2013-02-11 14:59:00,
2013-02-11 09:14:00,45.4,30.2,30.16,North,359,0.0,4.6,55,0.00,,,0.00,VWS V14.01,2013-02-11 15:14:00,
2013-02-11 09:29:00,45.8,31.0,30.17,North,4,1.1,5.8,56,0.00,,,0.00,VWS V14.01,2013-02-11 15:29:00,
2013-02-11 09:44:00,46.1,29.5,30.18,North,11,1.1,5.8,52,0.00,,,0.00,VWS V14.01,2013-02-11 15:44:00,
2013-02-11 09:59:00,46.5,30.3,30.20,NNE,15,2.3,4.6,53,0.00,,,0.00,VWS V14.01,2013-02-11 15:59:00,
2013-02-11 10:14:00,46.7,30.5,30.19,NW,326,0.0,4.6,53,0.00,,,0.00,VWS V14.01,2013-02-11 16:14:00,
2013-02-11 10:29:00,47.8,30.1,30.21,North,352,2.3,2.3,50,0.00,,,0.00,VWS V14.01,2013-02-11 16:29:00,
2013-02-11 10:44:00,48.2,30.5,30.19,NW,324,0.0,3.4,50,0.00,,,0.00,VWS V14.01,2013-02-11 16:44:00,
2013-02-11 10:59:00,49.6,31.7,30.18,WSW,243,0.0,3.4,50,0.00,,,0.00,VWS V14.01,2013-02-11 16:59:00,
2013-02-11 11:14:00,49.8,30.4,30.18,NW,323,1.1,4.6,47,0.00,,,0.00,VWS V14.01,2013-02-11 17:14:00,
2013-02-11 11:29:00,50.0,31.1,30.20,West,261,0.0,3.4,48,0.00,,,0.00,VWS V14.01,2013-02-11 17:29:00,
2013-02-11 11:44:00,50.5,31.6,30.20,North,358,0.0,3.4,48,0.00,,,0.00,VWS V14.01,2013-02-11 17:44:00,
2013-02-11 11:59:00,51.7,31.1,30.19,NNE,26,2.3,2.3,45,0.00,,,0.00,VWS V14.01,2013-02-11 17:59:00,
2013-02-11 12:14:00,51.8,31.1,30.18,NNE,33,1.1,3.4,45,0.00,,,0.00,VWS V14.01,2013-02-11 18:14:00,
2013-02-11 12:29:00,52.3,29.3,30.18,WSW,255,0.0,3.4,41,0.00,,,0.00,VWS V14.01,2013-02-11 18:29:00,
2013-02-11 12:44:00,52.9,31.0,30.17,SSW,207,1.1,4.6,43,0.00,,,0.00,VWS V14.01,2013-02-11 18:44:00,
2013-02-11 12:59:00,54.1,32.7,30.16,North,355,2.3,4.6,44,0.00,,,0.00,VWS V14.01,2013-02-11 18:59:00,
2013-02-11 13:14:00,55.0,32.9,30.15,WNW,285,0.0,2.3,43,0.00,,,0.00,VWS V14.01,2013-02-11 19:14:00,
2013-02-11 13:29:00,54.5,31.3,30.16,WSW,239,3.4,3.4,41,0.00,,,0.00,VWS V14.01,2013-02-11 19:29:00,
2013-02-11 13:44:00,54.7,30.2,30.15,West,259,0.0,4.6,39,0.00,,,0.00,VWS V14.01,2013-02-11 19:44:00,
2013-02-11 13:59:00,56.0,30.8,30.14,WSW,242,0.0,2.3,38,0.00,,,0.00,VWS V14.01,2013-02-11 19:59:00,
2013-02-11 14:14:00,56.1,30.2,30.14,ENE,67,0.0,3.4,37,0.00,,,0.00,VWS V14.01,2013-02-11 20:14:00,
2013-02-11 14:29:00,55.8,30.6,30.13,ESE,122,0.0,2.3,38,0.00,,,0.00,VWS V14.01,2013-02-11 20:29:00,
2013-02-11 14:44:00,56.8,31.5,30.13,NW,318,0.0,3.4,38,0.00,,,0.00,VWS V14.01,2013-02-11 20:44:00,
2013-02-11 14:59:00,57.2,30.5,30.13,NNW,332,0.0,2.3,36,0.00,,,0.00,VWS V14.01,2013-02-11 20:59:00,
2013-02-11 15:14:00,57.4,30.7,30.11,NW,323,1.1,2.3,36,0.00,,,0.00,VWS V14.01,2013-02-11 21:14:00,
2013-02-11 15:29:00,56.9,28.1,30.12,WSW,252,1.1,3.4,33,0.00,,,0.00,VWS V14.01,2013-02-11 21:29:00,
2013-02-11 15:44:00,56.5,31.2,30.11,NE,40,0.0,1.1,38,0.00,,,0.00,VWS V14.01,2013-02-11 21:44:00,
2013-02-11 15:59:00,57.4,30.0,30.11,NNW,328,2.3,3.4,35,0.00,,,0.00,VWS V14.01,2013-02-11 21:59:00,
2013-02-11 16:14:00,55.8,29.3,30.11,ENE,58,0.0,2.3,36,0.00,,,0.00,VWS V14.01,2013-02-11 22:14:00,
2013-02-11 16:29:00,55.9,28.7,30.11,North,354,0.0,0.0,35,0.00,,,0.00,VWS V14.01,2013-02-11 22:29:00,
2013-02-11 16:44:00,55.3,28.1,30.12,North,351,0.0,0.0,35,0.00,,,0.00,VWS V14.01,2013-02-11 22:44:00,
2013-02-11 16:59:00,53.9,28.9,30.11,North,351,0.0,0.0,38,0.00,,,0.00,VWS V14.01,2013-02-11 22:59:00,
2013-02-11 17:14:00,53.4,28.5,30.11,North,358,0.0,1.1,38,0.00,,,0.00,VWS V14.01,2013-02-11 23:14:00,
2013-02-11 17:29:00,52.3,28.1,30.12,North,358,0.0,0.0,39,0.00,,,0.00,VWS V14.01,2013-02-11 23:29:00,
2013-02-11 17:44:00,50.6,29.0,30.10,North,358,0.0,0.0,43,0.00,,,0.00,VWS V14.01,2013-02-11 23:44:00,
2013-02-11 17:59:00,49.0,28.6,30.10,North,358,0.0,0.0,45,0.00,,,0.00,VWS V14.01,2013-02-11 23:59:00,
2013-02-11 18:14:00,48.5,30.2,30.12,SW,236,0.0,0.0,49,0.00,,,0.00,VWS V14.01,2013-02-12 00:14:00,
2013-02-11 18:29:00,48.3,31.0,30.14,SW,236,0.0,0.0,51,0.00,,,0.00,VWS V14.01,2013-02-12 00:29:00,
2013-02-11 18:44:00,47.9,33.4,30.11,SW,236,0.0,0.0,57,0.00,,,0.00,VWS V14.01,2013-02-12 00:44:00,
2013-02-11 18:59:00,47.9,33.4,30.12,SW,236,0.0,0.0,57,0.00,,,0.00,VWS V14.01,2013-02-12 00:59:00,
2013-02-11 19:14:00,48.4,34.3,30.15,South,188,0.0,0.0,58,0.00,,,0.00,VWS V14.01,2013-02-12 01:14:00,
2013-02-11 19:29:00,49.0,34.5,30.16,SSW,195,0.0,0.0,57,0.00,,,0.00,VWS V14.01,2013-02-12 01:29:00,
2013-02-11 19:44:00,48.3,35.9,30.15,SSW,195,0.0,0.0,62,0.00,,,0.00,VWS V14.01,2013-02-12 01:44:00,
2013-02-11 19:59:00,48.0,35.6,30.14,ENE,78,0.0,1.1,62,0.00,,,0.00,VWS V14.01,2013-02-12 01:59:00,
2013-02-11 20:14:00,46.9,35.8,30.14,ENE,78,0.0,0.0,65,0.00,,,0.00,VWS V14.01,2013-02-12 02:14:00,
2013-02-11 20:29:00,47.0,35.9,30.17,SSE,150,0.0,0.0,65,0.00,,,0.00,VWS V14.01,2013-02-12 02:29:00,
2013-02-11 20:44:00,46.7,36.0,30.17,SSE,149,0.0,0.0,66,0.00,,,0.00,VWS V14.01,2013-02-12 02:44:00,
2013-02-11 21:14:00,46.1,37.2,30.14,SSE,148,0.0,0.0,71,0.00,,,0.00,VWS V14.01,2013-02-12 03:14:00,
2013-02-11 21:29:00,46.0,37.5,30.13,SSE,148,0.0,0.0,72,0.00,,,0.00,VWS V14.01,2013-02-12 03:29:00,
2013-02-11 21:44:00,45.7,37.9,30.14,SSE,148,0.0,0.0,74,0.00,,,0.00,VWS V14.01,2013-02-12 03:44:00,
2013-02-11 21:59:00,45.9,37.0,30.13,SSE,148,0.0,0.0,71,0.00,,,0.00,VWS V14.01,2013-02-12 03:59:00,
2013-02-11 22:14:00,46.3,36.7,30.14,SE,143,0.0,0.0,69,0.00,,,0.00,VWS V14.01,2013-02-12 04:14:00,
2013-02-11 22:29:00,46.2,36.6,30.15,SE,144,0.0,0.0,69,0.00,,,0.00,VWS V14.01,2013-02-12 04:29:00,
2013-02-11 22:44:00,46.0,36.8,30.16,SSE,149,0.0,0.0,70,0.00,,,0.00,VWS V14.01,2013-02-12 04:44:00,
2013-02-11 22:59:00,46.6,37.3,30.16,SE,146,0.0,0.0,70,0.00,,,0.00,VWS V14.01,2013-02-12 04:59:00,
2013-02-11 23:14:00,46.4,37.5,30.16,SE,132,0.0,0.0,71,0.00,,,0.00,VWS V14.01,2013-02-12 05:14:00,
2013-02-11 23:29:00,45.9,37.8,30.17,SE,132,0.0,0.0,73,0.00,,,0.00,VWS V14.01,2013-02-12 05:29:00,
2013-02-11 23:44:00,45.6,37.8,30.15,SE,132,0.0,0.0,74,0.00,,,0.00,VWS V14.01,2013-02-12 05:44:00,
2013-02-11 23:59:00,45.4,38.6,30.15,SE,132,0.0,0.0,77,0.00,,,0.00,VWS V14.01,2013-02-12 05:59:00,